星链-30257 (STARLINK-30257 )

导读

STARLINK-30257是美国太空探索技术公司SpaceX星链卫星互联网项目的卫星,于2023年8月8日发射升空,归属美国所有。星链计划旨在通过构建大规模低轨卫星星座,为全球范围用户提供高速低成本卫星互联网接入服务,该卫星是星链组网部署中的一颗,助力完善星座覆盖能力。

基本信息
目录编号:
57526
目录名称:
STARLINK-30257
国际标识:
2023-115F
轨道中心:
EARTH
卫星名称:
星链-30257
卫星全名:
星链-30257 (STARLINK-30257 )
卫星状态:
在轨 (已飞行1130 天)
发射日期:
2023-08-08 UTC
国别 :
美国 (US)
星等 :
--
该卫星已列入 空间交会检测服务 Space Conjunction Data Service (SCDS) ,当前飞行风险评估等级: 高风险
轨道信息
数据来源 国际轨道数据
星历时间: 2026-09-10T01:01:34+0800
2天前
查看轨道信息
半长轴: 6861.251km
偏心率: 0.0000404
轨道倾角: 42.998°
近地点辐角 136.827°
升交点赤经 42.469°
平近点角 223.262°
近地点: 482.836km
远地点: 483.392km
周期: 94.268分钟
每日圈数: 15.275584
详细信息
固有亮度:
5
最大亮度:
0.3
卫星平台:
Starlink v2.0 mini
覆盖范围:
全球
运营商:
太空探索技术公司
运营商所在国:
美国
制造商(研发单位):
太空探索技术公司
制造商所在国:
美国
使用方式:
暂无
卫星简介
星链(Starlink)计划是由太空探索技术公司(SpaceX)提出的一个巨型低轨卫星互联网星座项目,计划在2019年至2024年间在太空搭建由约1.2万颗卫星组成的“星链”网络,其中1584颗将部署在地球上空550千米处的近地轨道,并从2020年开始工作。该卫星仍在工作。
2D轨道图
3D轨道图
轨道高度分析图
轨道倾角分析图
轨道综合分析图
查看轨道综合分析图
交会数据列表
事件ID 空间交会对象 最接近时刻(TCA) 交会距离 交会风险概率(CRP) 交会风险指数(CRI) 操作
CDM_260913-011005-655605-752621
2026-09-13T
01:10:49+0000
0.139 km
中距离
9.373009E-4 高风险 0.94
CDM_260912-072005-752606-357921
2026-09-12T
07:20:24+0000
0.231 km
中距离
4.126014E-4 高风险 0.87
CDM_260912-045905-752606-357921
2026-09-12T
04:59:11+0000
0.547 km
远距离
6.918607E-5 中风险 0.72
CDM_260912-203705-752606-249821
2026-09-12T
20:37:16+0000
0.727 km
远距离
4.227001E-5 中风险 0.68
CDM_260913-165005-752606-633521
2026-09-13T
16:50:37+0000
0.859 km
远距离
3.453065E-5 中风险 0.66
CDM_260913-024405-655605-752621
2026-09-13T
02:44:59+0000
1.027 km
极远距离
1.843512E-5 中风险 0.6
CDM_260912-233605-655605-752621
2026-09-12T
23:36:40+0000
1.214 km
极远距离
1.028395E-5 中风险 0.55
CDM_260913-131905-601005-752621
2026-09-13T
13:19:06+0000
1.124 km
极远距离
8.505963E-6 低风险 0.54
CDM_260913-030905-752606-385021
2026-09-13T
03:09:08+0000
1.240 km
极远距离
7.191393E-6 低风险 0.52
CDM_260913-114405-601005-752621
2026-09-13T
11:44:57+0000
1.373 km
极远距离
4.330686E-6 低风险 0.48
与全量物体交会距离演化趋势
与全量物体交会风险概率演化趋势